DW9007 Weather Reports


Display with metric or nautical units.
time (UTC)temp
F
wind
direction
speed
MPH
gust
MPH
rain 1hr
in
rain 24hr
in
rain mn
in
humidity
%
barometer
mb
20260507163052 58 214 0.0 1.0 0.00 0.00 0.00 95 1013.9
20260507161533 57 259 0.0 7.0 0.00 0.00 0.00 95 1013.8
20260507160032 57 28 1.0 7.0 0.00 0.00 0.00 96 1013.5
20260507154518 57 73 0.0 3.0 0.00 0.00 0.00 96 1013.4
20260507153015 57 269 0.0 8.0 0.00 0.00 0.00 96 1013.6
20260507151555 57 256 0.0 4.0 0.00 0.00 0.00 96 1013.5
20260507150053 58 263 1.0 8.0 0.00 0.00 0.00 96 1013.3
20260507144549 58 57 1.0 4.0 0.00 0.00 0.00 96 1013.1
20260507143033 58 314 0.0 3.0 0.00 0.00 0.00 96 1013.1
20260507141515 58 68 0.0 4.0 0.00 0.00 0.00 96 1012.9
20260507140015 58 93 0.0 6.0 0.00 0.00 0.00 96 1012.9
20260507134556 58 242 0.0 5.0 0.00 0.00 0.00 96 1012.6
20260507133055 57 68 0.0 3.0 0.00 0.00 0.00 96 1012.6
20260507131541 57 104 2.0 5.0 0.00 0.00 0.00 96 1012.3
20260507130035 57 42 0.0 3.0 0.00 0.00 0.00 96 1012.0
20260507124516 57 54 0.0 5.0 0.00 0.00 0.00 96 1011.6
20260507123016 57 355 0.0 4.0 0.00 0.00 0.00 96 1011.8
20260507121501 57 309 0.0 3.0 0.00 0.00 0.00 96 1011.8
20260507114601 57 61 0.0 4.0 0.00 0.00 0.00 96 1011.0
20260507113059 57 321 0.0 3.0 0.00 0.00 0.00 96 1010.6
20260507113004 57 321 0.0 3.0 0.00 0.00 0.00 96 1010.6
20260507111559 57 11 0.0 3.0 0.00 0.00 0.00 96 1010.6
20260507110058 57 347 1.0 6.0 0.00 0.00 0.00 96 1010.4
20260507104558 58 16 0.0 6.0 0.00 0.00 0.00 96 1010.8
20260507103104 58 32 0.0 4.0 0.00 0.00 0.00 96 1010.2
20260507101545 58 355 0.0 4.0 0.00 0.00 0.00 96 1010.1
20260507100041 58 82 3.0 9.0 0.00 0.00 0.00 96 1010.0
20260507094515 59 92 2.0 6.0 0.00 0.00 0.00 96 1009.3
20260507093019 60 57 2.0 7.0 0.00 0.00 0.00 95 1009.4
20260507091557 61 196 0.0 10.0 0.00 0.00 0.00 95 1009.8
20260507090048 63 65 1.0 6.0 0.00 0.00 0.00 95 1009.3
20260507084537 64 259 0.0 4.0 0.00 0.00 0.00 96 1009.2
20260507083035 64 51 0.0 3.0 0.00 0.00 0.00 96 1008.7
20260507081534 64 17 0.0 0.0 0.00 0.00 0.00 96 1008.7
20260507080038 64 17 0.0 0.0 0.00 0.00 0.00 96 1009.2
20260507074533 64 17 0.0 0.0 0.00 0.00 0.00 96 1008.8
20260507073033 64 18 0.0 2.0 0.00 0.00 0.00 96 1009.1
20260507071532 65 40 0.0 3.0 0.00 0.00 0.00 96 1009.1
20260507070032 64 61 0.0 2.0 0.00 0.00 0.00 96 1008.8
20260507064513 64 61 0.0 0.0 0.00 0.00 0.00 96 1008.8
20260507063014 64 61 0.0 0.0 0.00 0.00 0.00 95 1009.7
20260507061553 64 61 0.0 0.0 0.00 0.00 0.00 95 1009.6
20260507060058 65 61 0.0 1.0 0.00 0.00 0.00 95 1009.9
20260507054545 65 61 0.0 2.0 0.00 0.00 0.00 95 1010.0
20260507053037 65 59 0.0 0.0 0.00 0.00 0.00 95 1010.5
20260507051517 65 79 0.0 0.0 0.00 0.00 0.00 95 1010.4
20260507050016 65 79 0.0 0.0 0.00 0.00 0.00 95 1010.4
20260507044603 65 79 0.0 4.0 0.00 0.00 0.00 95 1009.7
20260507043101 65 77 0.0 0.0 0.00 0.00 0.00 95 1010.5
20260507041538 65 76 0.0 3.0 0.00 0.00 0.00 95 1010.7
20260507040039 66 69 0.0 3.0 0.00 0.00 0.00 95 1011.0
20260507034520 66 84 0.0 0.0 0.00 0.00 0.00 95 1011.1
20260507033019 66 84 0.0 0.0 0.00 0.00 0.00 95 1010.3
20260507031600 66 61 0.0 2.0 0.00 0.00 0.00 95 1009.6
20260507030104 66 60 0.0 0.0 0.00 0.00 0.00 95 1011.6
20260507024547 66 60 0.0 1.0 0.00 0.00 0.00 94 1010.9
20260507023041 66 61 0.0 1.0 0.00 0.00 0.00 94 1010.4
20260507021523 66 63 0.0 2.0 0.00 0.00 0.00 94 1010.8
20260507020026 67 32 0.0 6.0 0.00 0.00 0.00 94 1010.7
20260507014501 67 74 1.0 8.0 0.00 0.00 0.00 93 1010.5
20260507013103 67 73 1.0 6.0 0.00 0.00 0.00 93 1010.5
20260507011542 69 107 3.0 13.0 0.00 0.00 0.00 91 1009.8
20260507010040 72 49 1.0 6.0 0.00 0.00 0.00 91 1009.8
20260507004516 73 208 0.0 0.0 0.00 0.00 0.00 92 1009.1
20260507003021 73 208 0.0 0.0 0.00 0.00 0.00 92 1009.8
20260507001615 73 208 0.0 0.0 0.00 0.00 0.00 92 1009.5
20260507000057 73 208 0.0 1.0 0.00 0.00 0.00 92 1009.4
20260506234557 73 208 0.0 0.0 0.00 0.00 0.00 92 1009.0
20260506233038 73 208 0.0 4.0 0.00 0.00 0.00 92 1009.7
20260506231542 73 198 0.0 4.0 0.00 0.00 0.00 91 1010.1
20260506230019 73 211 0.0 5.0 0.00 0.00 0.00 91 1009.8
20260506224521 74 195 1.0 7.0 0.00 0.00 0.00 90 1010.0
20260506223100 74 192 0.0 6.0 0.00 0.00 0.00 91 1009.5
20260506221559 74 190 0.0 4.0 0.00 0.00 0.00 91 1009.9
20260506220041 73 186 0.0 5.0 0.00 0.00 0.00 91 1010.0
20260506214554 73 202 0.0 4.0 0.00 0.00 0.00 90 1009.8
20260506213021 74 190 0.0 5.0 0.00 0.00 0.00 89 1009.7
20260506211518 74 220 0.0 7.0 0.00 0.00 0.00 87 1009.8
20260506210058 75 223 0.0 8.0 0.00 0.00 0.00 85 1009.9
20260506210004 75 223 1.0 8.0 0.00 0.00 0.00 85 1009.9
20260506204617 75 189 3.0 11.0 0.00 0.00 0.00 84 1010.0
20260506203037 75 205 1.0 7.0 0.00 0.00 0.00 84 1010.1
20260506201537 76 193 0.0 9.0 0.00 0.00 0.00 84 1010.3
20260506200016 75 213 0.0 9.0 0.00 0.00 0.00 85 1010.4
20260506194514 75 213 1.0 6.0 0.00 0.00 0.00 84 1010.9
20260506193058 75 269 0.0 6.0 0.00 0.00 0.00 84 1011.2
20260506191553 75 215 0.0 8.0 0.00 0.00 0.00 84 1011.4
20260506190033 75 332 0.0 4.0 0.00 0.00 0.00 84 1011.5
20260506184533 75 167 1.0 9.0 0.00 0.00 0.00 83 1011.7
20260506183015 75 236 0.0 5.0 0.00 0.00 0.00 83 1011.7
20260506181515 75 227 0.0 10.0 0.00 0.00 0.00 82 1011.9
20260506180058 75 215 1.0 5.0 0.00 0.00 0.00 82 1011.9
20260506174555 76 165 1.0 7.0 0.00 0.00 0.00 81 1011.9
20260506173041 77 192 1.0 7.0 0.00 0.00 0.00 80 1011.9
20260506171550 76 203 0.0 6.0 0.00 0.00 0.00 80 1012.0
20260506170016 76 221 1.0 7.0 0.00 0.00 0.00 81 1011.8
20260506164518 76 198 1.0 6.0 0.00 0.00 0.00 81 1011.9